Location: Albany
(35.0170°S, 117.8920°E)
Time: 09:15:36
(UTC+08:00)

S-56A Canister/Altair - Pass Details

Date: 27 January 2021
Orbit: 632 x 2501 km, 38.9° (Epoch: 25 February)

Event Time Altitude Azimuth Distance (km) Brightness Sun altitude
Rises 18:20:40 0° 249° (WSW) 6,186 14.3 10.5°
Reaches altitude 10° 18:24:46 10° 250° (WSW) 5,177 15.1 9.7°
Maximum altitude 18:39:44 71° 330° (NNW) 2,315 10.2 6.8°
Drops below altitude 10° 18:51:05 10° 51° (NE) 4,040 10.6 4.6°
Sets 18:53:53 0° 53° (NE) 4,804 11.0 4.0°
